RH
79 82 85 86 87 87 88 86 67 60 62 64 60 59 68 68 70 73 70 77 76 84 85 86 88 71 70 80 85 89 86 89 91
76 66 71 82 91 94 95 93 75 74 76 73 69 66 68 71 77 76 73 66 91 97 87 84 90 95 91 89 86 93 94 86 88
80 67 67 75 86 94 96 89 79 77 74 71 66 62 62 72 70 67 61 70 92 93 94 95 97 97 98 96 93 94 92 92 96
83 76 71 81 82 80 79 75 74 72 66 62 62 64 65 73 72 66 66 75 89 92 90 97 97 96 97 98 99 99 99 100 100
90 79 67 72 73 73 74 71 66 63 57 57 56 54 52 63 62 61 61 76 90 87 98 95 88 88 95 96 95 94 96 98 99
86 78 64 67 71 73 73 66 62 58 52 50 49 50 47 52 52 53 53 65 81 93 94 88 85 87 92 90 89 90 92 94 96
82 83 63 67 69 72 73 60 54 53 55 48 44 45 42 38 43 44 43 78 80 93 89 86 82 84 86 84 83 81 84 86 88
81 86 68 69 71 72 68 53 52 50 45 42 32 25 29 30 31 34 36 50 75 88 84 80 77 77 79 76 77 76 76 79 81
83 65 56 70 73 66 58 50 46 40 36 26 26 22 27 28 27 30 34 54 86 85 78 73 72 68 66 66 66 66 66 68 73
67 60 65 75 77 67 52 45 40 36 26 22 22 22 22 25 25 31 33 37 76 76 70 65 59 58 59 59 60 61 66 67 68
56 63 71 68 64 57 49 44 38 28 23 21 21 20 21 24 24 30 31 33 48 58 58 55 53 52 53 56 62 64 65 68 71
58 66 67 63 62 50 42 38 31 24 23 22 21 21 21 23 25 27 30 28 26 26 30 37 42 43 48 51 60 64 67 71 73
61 64 64 60 58 45 41 34 26 23 23 22 21 21 23 24 25 27 29 28 28 28 29 27 32 44 44 47 54 58 66 72 74
60 63 63 61 52 39 38 30 25 24 24 22 20 20 22 26 27 26 28 29 28 25 24 25 25 32 40 44 50 53 60 67 71
63 65 63 60 47 38 34 25 25 26 25 24 24 25 25 29 30 26 27 27 26 26 26 26 25 24 27 40 45 47 54 61 68
66 67 63 53 47 41 28 27 29 27 25 25 24 28 26 26 27 28 29 29 25 26 26 25 24 23 24 26 36 44 50 57 62
69 68 59 47 39 31 27 28 30 30 24 23 31 40 30 24 24 28 31 24 22 22 24 23 23 25 26 27 32 37 44 50 58
73 67 56 44 37 29 27 29 30 32 27 21 24 39 40 33 24 30 26 24 23 24 24 25 25 26 27 28 28 29 42 46 54
73 61 44 39 31 28 29 30 30 29 30 26 23 20 22 34 30 25 24 22 24 23 23 23 25 28 27 27 27 29 40 44 53
68 44 40 37 36 34 32 30 27 28 28 28 27 26 26 27 38 44 34 24 22 21 24 26 24 28 30 30 31 32 40 46 50
Wind_Speed
15 15 16 15 14 13 12 11 10 9 9 7 7 7 7 7 7 5 5 4 7 6 6 7 5 3 3 4 3 4 5 6 4
13 14 14 14 13 12 11 10 10 10 10 9 8 7 6 3 8 7 5 5 8 5 6 4 5 7 4 4 3 4 6 6 6
12 12 12 12 11 11 11 10 10 9 8 7 6 5 5 7 6 4 5 7 8 9 9 9 11 11 8 14 7 5 4 6 7
12 12 11 11 11 11 11 10 8 7 7 6 6 6 6 4 7 6 7 8 8 8 8 10 12 12 12 13 13 13 13 13 12
12 11 10 10 10 11 9 8 8 8 7 7 7 7 9 8 6 6 6 7 7 8 9 10 10 10 11 11 12 11 13 13 13
17 12 11 11 10 9 8 8 8 8 8 8 5 6 7 4 2 3 4 5 6 7 9 9 9 10 10 10 11 11 11 12 11
17 13 10 10 9 9 8 8 7 6 6 4 2 1 1 2 1 1 2 6 7 8 9 9 9 9 9 9 10 10 10 10 9
14 13 11 11 9 9 9 9 6 4 4 3 2 3 1 1 1 2 3 4 6 7 8 8 8 8 8 9 9 10 10 9 9
17 12 13 12 11 10 9 8 5 4 1 1 1 2 2 2 2 2 2 4 7 6 7 8 9 9 8 8 9 9 9 8 8
18 15 17 15 14 9 11 9 6 4 2 1 1 0 1 2 2 1 2 1 7 6 6 7 7 8 9 9 9 9 9 9 8
21 21 18 19 16 14 12 10 7 4 2 2 0 1 1 1 3 1 1 0 3 2 4 5 7 8 9 9 10 10 10 10 10
23 21 26 18 15 14 14 10 7 4 2 2 1 1 1 2 3 3 2 1 1 1 2 5 7 7 8 10 10 10 10 10 11
24 27 23 19 17 15 13 10 7 4 2 1 2 2 2 2 5 4 3 2 2 3 4 6 8 8 9 10 11 11 10 11 12
27 26 23 20 19 16 13 10 7 4 1 0 2 3 3 3 7 6 5 4 4 5 7 8 8 7 10 11 12 11 11 13 11
28 27 23 22 22 18 14 11 8 4 0 1 2 3 0 3 6 6 6 5 5 7 6 6 8 12 15 11 11 13 12 12 12
32 27 25 24 23 19 16 13 9 5 1 1 1 3 3 2 4 6 7 5 5 5 5 6 11 17 16 16 14 14 13 12 14
33 28 28 26 23 20 18 16 11 5 3 3 2 2 1 4 5 8 8 4 3 4 5 10 15 16 17 19 18 13 12 15 16
33 30 30 27 25 23 20 16 12 9 4 4 3 2 3 3 1 7 7 3 3 4 7 10 14 17 18 19 23 18 13 16 17
31 30 30 28 24 22 20 17 13 11 9 6 4 2 2 2 3 2 6 3 1 8 14 18 16 15 20 22 21 20 16 18 19
29 33 31 28 25 22 19 17 14 12 11 8 5 4 4 4 3 3 4 10 17 19 14 16 20 13 17 19 20 19 17 20 23
Wind_Direction
121 118 115 114 112 110 108 108 107 102 96 94 91 97 107 92 63 119 92 56 23 30 33 6 10 7 322 283 236 285 293 302 307
125 121 118 116 116 112 110 109 107 103 98 93 86 80 91 57 71 120 102 26 39 39 46 9 27 38 354 292 276 293 302 293 287
131 127 124 122 120 118 115 113 109 102 96 84 78 68 62 49 111 110 71 70 60 58 58 58 60 57 47 51 58 36 354 284 284
146 139 135 132 131 126 121 115 109 102 88 76 77 78 55 49 130 96 72 77 70 62 57 75 66 56 58 60 57 49 46 48 51
176 154 148 143 138 132 125 115 111 97 79 76 77 68 54 104 114 90 79 73 82 68 82 72 65 62 62 58 55 47 50 50 53
182 173 163 153 146 136 128 118 114 116 101 87 68 91 56 89 76 61 59 74 79 93 77 69 64 65 67 53 48 44 44 45 40
175 175 169 161 157 148 140 131 124 115 138 93 122 28 92 66 356 37 59 92 82 101 81 71 65 66 59 46 42 33 34 35 33
182 182 181 174 168 162 147 146 139 121 134 128 92 61 88 6 357 5 355 68 116 95 77 68 63 59 52 41 35 32 29 24 20
183 196 188 183 173 162 154 153 154 156 136 99 121 86 95 270 312 329 3 101 111 109 79 67 62 57 46 37 23 21 12 9 4
197 193 184 185 181 179 167 167 177 180 172 145 303 296 94 282 300 346 17 119 118 100 80 65 53 46 35 22 11 6 0 357 352
197 196 195 176 179 176 177 190 193 187 174 163 101 351 168 192 275 260 316 13 159 118 71 53 34 23 14 4 0 359 353 350 346
198 195 180 189 186 179 180 187 182 181 179 161 171 236 296 210 224 235 159 162 102 60 9 1 5 2 7 359 357 351 346 345 342
198 187 191 191 184 186 190 180 174 178 183 210 190 223 219 212 205 204 211 234 275 308 322 331 351 353 354 349 347 343 342 343 341
200 200 196 187 184 186 191 181 190 178 179 273 237 217 281 234 187 208 220 252 289 313 317 322 328 350 348 339 340 336 336 334 336
205 201 197 188 185 188 184 178 170 159 347 175 229 232 352 170 201 213 216 260 291 305 317 307 316 324 328 330 332 328 322 324 326
202 203 194 190 191 188 180 166 160 131 69 145 92 166 186 199 210 209 222 245 262 282 287 293 315 321 328 330 327 322 317 317 316
205 202 192 191 187 181 178 175 163 146 110 136 99 23 286 239 234 224 220 243 236 280 274 310 318 322 322 323 322 314 306 310 311
202 197 193 190 192 183 182 183 180 158 129 114 148 102 223 309 48 210 196 199 290 273 308 324 322 318 315 314 319 314 304 306 306
194 193 191 189 188 186 183 181 181 177 163 141 120 124 146 165 326 193 204 313 303 315 310 310 317 317 310 311 312 305 300 304 304
187 188 188 188 188 186 181 172 174 177 168 169 159 169 184 206 153 269 287 280 297 305 306 310 313 322 317 312 305 295 295 301 303